Location: *
(51.1248°S, 108.4023°W)
Time: 03:46:41
(UTC+00:00)

Cosmos 1269 Rocket - Pass Details

Date: 15 June 2021
Orbit: 773 x 779 km, 74.1° (Epoch: 31 July)

Event Time Altitude Azimuth Distance (km) Brightness Sun altitude
Exits shadow 13:18:57 15° 205° (SSW) 2,012 5.8 -17.2°
Maximum altitude 13:23:25 87° 291° (WNW) 799 4.0 -16.6°
Drops below altitude 10° 13:28:46 10° 21° (NNE) 2,342 7.0 -15.8°
Sets 13:31:08 0° 21° (NNE) 3,262 7.9 -15.4°
